1st Responders/1st Detectors/Storm Spotters Weather Summary for Boone County, KY

Forecast Maps


Reg. NEXRAD Animation


National Fire Danger: Day 1 & 2 Map

Current NWS Watch/Warnings

SPC Convective Day 1 Outlook


Day 2 Outlook

(Click images to enlarge|Page will refresh every 5 minutes)
UK Ag. Weather Center Desktop Severe Weather Service[HERE]
Boone County, KY Hazardous Weather Outlook Webcast
(9 AM to 9 PM Mon-Fri)
[Fast]
[Dial-up]


UKAWC 1st Detectors/1st Responders Precision Weather Forecast For BOONE County, Kentucky
(based on the NWS County Digital Forecast)

ISSUED AT 05:00 UTC ON THURSDAY JUN 04 2020
DAY THURSDAY
EDT 3HR 2A 3A 4A 5A 6A 7A 8A 9A 10A 11A NOON 1P 2P 3P 4P 5P 6P 7P
MAX/MIN -- -- -- -- -- -- 67° -- -- -- -- -- -- -- -- -- -- 85°
TEMP 70° 70° 70° 68° 67° 68° 68° 72° 76° 79° 81° 83° 85° 85° 85° 85° 83° 81°
SKY COVER 75% 76% 77% 77% 76% 76% 73% 80% 81% 78% 75% 73% 70% 71% 72% 74% 75% 76%
Clouds
DEW PT 65° 65° 63° 63° 63° 65° 67° 67° 67° 67° 67° 68° 68° 68° 68° 68° 68° 68°
RH 81% 84% 81% 84% 86% 86% 93% 84% 76% 69% 63% 60% 58% 57% 56% 59% 61% 64%
POP 12HR -- -- -- -- -- -- 46% -- -- -- -- -- -- -- -- -- -- --
RAIN/SNOW (liq.equ) 0.02in -- -- -- -- -- 0.04in -- -- -- -- -- 0.03in -- -- -- -- --
SNOWFALL 0in -- -- -- -- -- 0in -- -- -- -- -- 0in -- -- -- -- --
WIND SPEED(MPH) 5 5 5 5 5 5 5 7 8 8 9 9 9 9 8 7 7 7
WIND Gust(MPH) 5 5 5 5 5 5 5 7 9 9 10 13 13 10 9 7 7 7
WIND DIR S S SW S S S S S S SW SW SW SW SW SW SW SW SW
DEW Mod Dew Mod Dew Lgt Dew Mod Dew Mod Dew Mod Dew Mod Dew Mod Dew Lgt Dew -- -- -- -- -- -- -- -- --
HeatIndex 70 70 70 68 67 68 68 72 76 79 85 87 88 90 90 88 87 85
Rain Showers Chance Chance Chance Chance Chance Chance Chance Chance Chance Chance Chance Likely Likely Likely Likely Likely Likely Chance
Thunder Storm Chance Chance Chance Chance Chance Chance Chance Chance Chance Chance Chance Chance Chance Likely Likely Likely Likely Chance
WIND CHILL -- -- -- -- -- -- -- -- -- -- -- -- -- -- -- -- -- --
SPRAY COND
DRY COND
LIVESTOCK HEATSTRESS 68.83 69.01 68.83 67.19 66.37 67.29 67.65 70.84 73.73 75.56 76.48 77.68 78.95 78.80 78.66 79.09 77.81 76.60



DAY FRIDAY SATURDAY SUNDAY MONDAY TUESDAY WEDNESDAY
EDT 6HR 8P 9P 10P 11P MIDN 1A 2A 3A 4A 5A 6A 7A 8A 9A 10A 11A NOON 1P 2P 5P 8P 11P 2A 5A 8A 11A 2P 5P 8P 2A 8A 2P 8P 2A 8A 2P 8P 2A 8A 2P 8P 2A 8A 2P 8P
MAX/MIN -- -- -- -- -- -- -- -- -- -- -- -- 65° -- -- -- -- -- -- 85° -- -- -- -- 68° -- -- 85° -- -- 61° 81° -- -- 58° 83° -- -- 65° 88° -- -- 67° 81° --
TEMP 79° 76° 74° 72° 70° 70° 68° 67° 67° 65° 65° 67° 70° 72° 76° 79° 81° 83° 85° 85° 81° 74° 72° 68° 72° 79° 85° 85° 81° 65° 65° 79° 76° 61° 63° 81° 79° 67° 68° 85° 83° 70° 70° 81° 77°
SKY COVER 77% 75% 74% 72% 70% 69% 67% 68% 69% 70% 70% 71% 72% 69% 67% 64% 62% 59% 57% 59% 61% 59% 58% 61% 64% 51% 38% 26% 14% 7% 7% 11% 11% 18% 14% 12% 10% 21% 25% 39% 54% 73% 75% 74% 66%
Clouds
DEW PT 68° 68° 67° 67° 67° 67° 67° 67° 67° 65° 65° 67° 67° 68° 70° 70° 70° 70° 70° 68° 68° 68° 67° 67° 68° 68° 67° 63° 63° 56° 56° 56° 56° 54° 54° 56° 58° 58° 61° 65° 65° 65° 67° 63° 61°
RH 69% 76% 78% 84% 89% 90% 93% 96% 100% 99% 100% 99% 92% 87% 78% 73% 67% 64% 61% 57% 65% 81% 87% 92% 90% 69% 55% 48% 54% 74% 75% 45% 49% 74% 70% 40% 49% 70% 76% 51% 55% 84% 87% 56% 56%
POP 12HR 67% -- -- -- -- -- -- -- -- -- -- -- 29% -- -- -- -- -- -- -- 49% -- -- -- 31% -- -- -- 24% -- 1% -- 0% -- 0% -- 0% -- 8% -- 23% -- 41% -- 48%
RAIN/SNOW (liq.equ) 0.09in -- -- -- -- -- 0.05in -- -- -- -- -- 0.01in -- -- -- -- -- 0.02in -- 0.02in -- 0.03in -- 0.04in -- 0.01in -- 0.01in -- -- -- -- -- -- -- -- -- -- -- -- -- -- -- --
SNOWFALL 0in -- -- -- -- -- 0in -- -- -- -- -- 0in -- -- -- -- -- 0in -- 0in -- 0in -- 0in -- 0in -- 0in -- -- -- -- -- -- -- -- -- -- -- -- -- -- -- --
WIND SPEED(MPH) 6 6 5 5 5 5 5 5 5 5 2 2 2 2 5 5 5 6 6 6 2 2 2 2 5 5 5 6 6 5 6 6 7 7 7 6 6 6 5 6 5 7 7 7 6
WIND DIR SW SW SW SW SW S S S S SW SW SW SW SW SW SW SW SW SW W SW SW SW W NW NW NW NW N N NE NE NE E E E E E SE SE SE S SW SW W
HeatIndex 82 76 74 72 70 70 68 67 67 65 65 67 70 72 76 79 85 87 89 90 85 74 72 68 72 82 87 87 82 65 65 80 76 61 63 81 80 67 68 88 86 70 70 82 77
Rain Showers Chance Chance Chance Slight Chance Slight Chance Slight Chance Slight Chance Slight Chance Slight Chance Slight Chance Slight Chance Slight Chance Slight Chance Slight Chance Slight Chance Chance Chance Chance Chance Chance Chance Chance Chance Chance Slight Chance Slight Chance Slight Chance -- -- -- -- -- -- -- -- -- -- -- -- -- Chance Chance Chance Chance Chance
Thunder Storm Chance Chance Chance Slight Chance Slight Chance Slight Chance Slight Chance Slight Chance Slight Chance Slight Chance Slight Chance Slight Chance Slight Chance Slight Chance Slight Chance Chance Chance Chance Chance Chance Chance Chance Chance Chance Slight Chance Slight Chance Slight Chance -- -- -- -- -- -- -- -- -- -- -- -- -- Chance Slight Chance Slight Chance Chance Slight Chance
WIND CHILL -- -- -- -- -- -- -- -- -- -- -- -- -- -- -- -- -- -- -- -- -- -- -- -- -- -- -- -- -- -- -- -- -- -- -- -- -- -- -- -- -- -- -- -- --
SPRAY COND
DRY COND
LIVESTOCK HEATSTRESS 75.56 73.73 72.16 70.84 69.32 69.38 67.65 66.82 67.00 64.97 65.00 66.95 69.51 71.06 73.92 76.00 76.97 78.21 79.38 78.80 76.73 72.41 71.06 67.60 71.27 75.56 78.52 77.51 75.38 64.11 64.15 72.89 71.18 60.69 62.31 73.67 73.33 65.65 66.79 77.94 77.01 69.01 69.20 75.63 72.60

Click on individual weather variable above in left-hand column (ie., TEMP, RH, QPF 12HR) to view state forecast maps






NWS 48 Hr. Forecast Maps,

Regional Hourly Observations For BOONE County, Kentucky
Issued at 100 AM EDT THU JUN 04 2020
NORTHEAST KENTUCKY
  
CITY           SKY/WX    TMP DP  RH WIND       PRES   REMARKS
LEXINGTON      MOCLDY    70  64  81 S8        29.89F                  
COVINGTON      MOCLDY    72  63  73 S7        29.85F                  
FRANKFORT      MOCLDY    71  61  70 S5        29.87S                  


Current NOWCAST not available:
Nowcasts are not issued routinely during fair weather. Only when
precipitation or other significant weather is occuring in this county will these
forecasts be issued. Currently, there is no short term forecast in effect.


Fire Weather Forecast For BOONE County, KY
Provided by the National Weather Service:

Issued at: Thu Jun 4 01:05:02 EDT 2020

CLOUD COVER                     Pcldy        Pcldy        Mcldy
PRECIP TYPE                      None        Tstms        Tstms
CHANCE PRECIP (%)                   0           50           50
TEMP (24H TREND)               89 (0)      67 (+3)           84
RH % (24H TREND)             45 (+10)     96 (+24)           58
20FTWND-AM(MPH)             SW  7 G18                   Lgt/Var
20FTWND-PM(MPH)             SW 10 G18        SW  6        SW  5
PRECIP AMOUNT                    0.00         0.23         0.15
PRECIP DURATION                                  2            2
MIXING HGT(FT-AGL)               6040                      6410
TRANSPORT WND (MPH)              W 21                      W  7
LAL                                 1            3            3
HAINES INDEX                        5            3            3

REMARKS...None.

.FORECAST FOR DAYS 3 THROUGH 7...
.THURSDAY NIGHT...Mostly cloudy with a chance of showers and
thunderstorms. Lows in the upper 60s. Southwest winds around 5 mph. 
.FRIDAY...Partly sunny with a chance of showers and thunderstorms. Highs
in the mid 80s. Southwest winds around 5 mph. 
.SATURDAY...Mostly cloudy. A chance of showers and thunderstorms. Lows in
the upper 60s. Highs in the mid 80s. Northwest winds around 5 mph. 
.SUNDAY...Mostly clear. Lows in the lower 60s. Highs in the lower 80s.
Northeast winds around 5 mph. 
.MONDAY...Mostly clear. Lows in the lower 60s. Highs in the lower 80s.
East winds around 5 mph. 
.TUESDAY...Partly cloudy. A chance of showers. Lows in the mid 60s. Highs
in the upper 80s. Southeast winds around 5 mph. 

SPC's Fire Weather Web Tool (Excellent!), SPC's Fire Weather Outlooks, NWS Fire Weather WEB, Fire Danger Class Map,
Keetch-Byram Drought Index, ROMAN Web, Haines Index ,
WFAS's 10-hr Dead Fuel Moist., WFAS's 100-hr Dead Fuel Moist., Probablity of Ignition, Visual blackness Map, Palmer Drought Index, HPC's Rainfall Forecast Maps


Hazardous Weather Outlook For BOONE County, Kentucky
510 AM EDT Wed Jun 3 2020

 DAY ONE  Today and tonight.

Occasional showers and thunderstorms can be expected this afternoon 
into tonight. Some of these storms may become severe with damaging 
winds, large hail, and locally heavy rainfall.

 DAYS TWO THROUGH SEVEN  Thursday through Tuesday.

Thunderstorm activity may linger into Thursday, with a few strong to 
severe storms possible.

 SPOTTER INFORMATION STATEMENT  

Spotter activation will likely be needed, while following all local,
state and CDC guidelines.

Latest BOONE County, Kentucky Watches, Warnings and Advisories.
Additional Drought Info.: UKAWC Drought Page, Kentucky Drought Watch


7-Day Forecast For BOONE County, KY

REST OF TONIGHT
Mostly cloudy. Near steady temperatures around 70. South winds around 5 mph.

THURSDAY
Partly cloudy. A chance of showers with a slight chance of thunderstorms in the morning, then a chance of showers and thunderstorms in the afternoon. Humid with highs in the mid 80s. Southwest winds 5 to 10 mph. Chance of rain 50 percent.

THURSDAY NIGHT
Mostly cloudy. A chance of showers and thunderstorms in the evening, then a chance of showers with a slight chance of thunderstorms after midnight. Muggy. Lows in the upper 60s. South winds 5 to 10 mph. Chance of rain 50 percent.

FRIDAY
Mostly cloudy with a slight chance of showers and thunderstorms in the morning, then partly cloudy with a chance of showers and thunderstorms in the afternoon. Humid with highs in the upper 80s. Southwest winds 5 to 10 mph. Chance of rain 40 percent.

FRIDAY NIGHT
Partly cloudy with a chance of showers and thunderstorms. Muggy. Lows in the upper 60s. West winds around 5 mph. Chance of rain 40 percent.

SATURDAY
Partly cloudy. A chance of showers and thunderstorms in the morning. Highs in the mid 80s. Chance of rain 30 percent.

SATURDAY NIGHT
Mostly clear. Lows in the lower 60s.

SUNDAY
Sunny. Highs in the lower 80s.

SUNDAY NIGHT
Mostly clear. Lows in the upper 50s.

MONDAY
Mostly sunny. Highs in the mid 80s.

MONDAY NIGHT
Mostly clear. Lows in the mid 60s.

TUESDAY
Mostly sunny in the morning, then becoming partly cloudy. Highs in the upper 80s.

TUESDAY NIGHT
Partly cloudy in the evening, then becoming mostly cloudy. A chance of showers and thunderstorms. Lows in the upper 60s. Chance of rain 40 percent.

WEDNESDAY
Mostly cloudy. A chance of showers in the morning, then a chance of showers and thunderstorms in the afternoon. Highs in the lower 80s. Chance of rain 50 percent.

Ag Weather Center, Department of Biosystems & Agricultural Engineering, University of Kentucky